This is the latest recevied weather packets stored in our database for station/object KF0ZH. If no packets are shown the sender has not sent any weather packets the latest 10 day(s).
| Time | Temp. | Humidity | Pressure | Rain* | Wind** | Luminosity | Snow |
|---|---|---|---|---|---|---|---|
| 1777263004 | 12.22° C | 85% | 1008.1 hPa | 0 mm | 0.89 m/s, 45° | - | - |
| 1777262704 | 12.22° C | 85% | 1008.2 hPa | 0 mm | 1.34 m/s, 29° | - | - |
| 1777262405 | 11.67° C | 85% | 1008.1 hPa | 0 mm | 2.68 m/s, 50° | - | - |
| 1777262104 | 11.67° C | 85% | 1008.3 hPa | 0 mm | 2.24 m/s, 71° | - | - |
| 1777261804 | 11.67° C | 85% | 1008.4 hPa | 0 mm | 0 m/s | - | - |
| 1777261504 | 11.67° C | 86% | 1008.5 hPa | 0 mm | 1.34 m/s, 85° | - | - |
| 1777261204 | 11.67° C | 86% | 1008.7 hPa | 0 mm | 0 m/s | - | - |
| 1777260904 | 11.67° C | 86% | 1008.8 hPa | 0 mm | 1.34 m/s, 49° | - | - |
| 1777260604 | 11.67° C | 86% | 1008.9 hPa | 0 mm | 3.13 m/s, 16° | - | - |
| 1777260304 | 11.67° C | 86% | 1009 hPa | 0 mm | 0 m/s | - | - |
| 1777260004 | 11.67° C | 86% | 1009 hPa | 0 mm | 2.24 m/s, 35° | - | - |
| 1777259704 | 11.67° C | 86% | 1008.9 hPa | 0 mm | 2.24 m/s, 39° | - | - |
| 1777259404 | 11.67° C | 86% | 1009.1 hPa | 0 mm | 0 m/s | - | - |
| 1777259104 | 11.67° C | 86% | 1009.3 hPa | 0 mm | 2.24 m/s, 15° | - | - |
| 1777258805 | 11.67° C | 86% | 1009.4 hPa | 0 mm | 2.68 m/s, 19° | - | - |
| 1777258504 | 11.67° C | 86% | 1009.6 hPa | 0 mm | 2.24 m/s, 347° | - | - |
| 1777258205 | 11.67° C | 86% | 1009.5 hPa | 0 mm | 1.34 m/s, 25° | - | - |
| 1777257905 | 11.67° C | 85% | 1009.5 hPa | 0 mm | 2.24 m/s, 80° | - | - |
| 1777257604 | 11.67° C | 85% | 1009.6 hPa | 0 mm | 1.79 m/s, 74° | - | - |
| 1777257304 | 11.67° C | 85% | 1009.6 hPa | 0 mm | 2.24 m/s, 81° | - | - |
| 1777257036 | 12.22° C | 85% | 1009.7 hPa | 0 mm | 2.68 m/s, 50° | - | - |
| 1777257004 | 12.22° C | 85% | 1009.7 hPa | 0 mm | 2.68 m/s, 50° | - | - |
| 1777256704 | 12.22° C | 85% | 1009.7 hPa | 0 mm | 2.24 m/s, 39° | - | - |
| 1777256404 | 12.22° C | 85% | 1009.8 hPa | 0 mm | 1.79 m/s, 16° | - | - |
| 1777256104 | 12.22° C | 84% | 1009.8 hPa | 0 mm | 3.58 m/s, 45° | - | - |
* Rain latest hour (hover to see other rain measurements)
** Current wind speed in m/s (hover to see current wind gust speed)